Theta_e
312 311 310 308 305 304 302 301 300 299 299 299 298 298 298 300 305 304 301 317 321 321 321 320 319 319 319 318 317 316 316 315 314 313 313 313 312 312 312 312 312 311 311
315 312 308 306 303 302 300 299 298 296 295 295 294 294 294 295 297 301 300 300 318 320 319 319 319 318 318 317 316 315 315 314 312 312 311 311 311 310 310 310 310 310 309
316 313 309 307 304 300 297 296 296 295 294 292 292 292 292 292 294 296 298 296 296 311 317 317 317 317 316 316 315 315 313 313 311 310 310 309 309 309 309 308 308 308 308
316 312 311 309 303 300 297 297 295 292 291 290 291 290 290 290 291 292 294 294 294 293 304 313 314 315 315 315 314 314 312 311 311 310 308 308 308 308 307 307 307 306 306
316 314 312 310 303 299 296 296 292 292 291 290 289 288 286 287 288 291 291 290 291 291 290 302 305 308 313 314 313 312 311 310 308 307 307 306 307 306 306 306 305 305 305
318 314 312 308 303 298 296 294 293 292 291 289 289 287 287 287 287 287 288 289 289 289 288 289 292 294 309 312 312 311 310 309 306 305 305 305 305 304 304 304 304 304 304
319 316 312 308 303 299 297 295 291 290 288 287 288 287 287 286 286 284 286 287 288 288 287 288 289 291 292 305 310 310 310 308 306 304 304 303 303 303 303 303 303 303 303
319 317 313 308 305 301 296 293 291 290 288 289 288 287 285 284 285 284 285 285 285 286 287 287 288 289 289 292 300 308 308 306 304 303 302 302 302 302 301 301 301 301 301
320 318 314 311 306 302 297 293 293 293 286 287 288 290 283 286 282 283 284 284 283 283 285 286 286 287 287 288 292 298 304 303 302 302 301 300 300 300 300 299 299 300 300
321 318 314 312 307 304 299 296 295 295 293 288 288 289 289 286 283 282 282 283 283 282 283 285 285 285 286 287 292 296 299 299 299 300 299 298 298 298 298 298 298 298 299
319 317 316 313 310 307 303 298 296 295 295 293 290 287 286 285 285 283 282 279 282 282 283 284 284 284 285 285 285 290 297 298 297 296 295 295 295 295 296 296 297 297 297
308 309 310 312 311 308 306 301 297 296 295 295 293 290 287 285 284 284 282 281 281 282 282 282 282 283 283 284 286 290 295 296 296 295 293 293 293 293 293 294 295 295 295
303 305 306 305 308 309 307 303 299 296 295 294 293 292 292 290 287 287 284 281 280 280 281 282 282 282 283 283 284 288 293 295 295 294 293 292 292 291 291 292 293 293 293
305 303 302 303 304 305 304 301 298 296 295 293 294 293 292 291 288 286 285 282 279 279 279 280 282 282 282 282 283 288 285 292 294 294 293 291 291 291 290 291 291 292 292
297 300 300 299 300 300 299 299 297 295 294 293 293 292 292 292 290 288 286 285 289 283 278 280 278 281 282 282 282 284 283 288 291 292 292 291 290 291 290 290 290 291 291
292 292 295 296 296 296 297 297 296 293 292 293 293 292 291 292 290 288 286 286 286 289 286 282 280 280 281 281 283 282 282 284 288 289 291 290 290 290 290 290 289 290 290
290 290 289 289 291 292 293 294 293 291 292 292 292 291 291 292 290 287 286 286 285 286 286 280 280 280 280 280 281 282 282 282 282 287 289 289 290 290 289 290 289 289 289
289 289 287 287 287 287 290 290 290 291 290 290 290 290 290 290 289 288 286 285 285 285 286 282 278 278 279 280 280 281 280 281 280 284 287 288 288 289 289 289 289 288 288
288 288 287 286 286 286 287 288 289 289 289 290 290 289 290 289 287 288 286 285 284 284 285 281 277 279 279 279 279 280 279 279 279 282 285 286 287 288 289 289 288 287 287
288 286 286 286 286 286 286 286 287 287 288 288 288 289 289 288 288 286 286 285 284 283 283 283 278 277 278 279 279 277 277 278 277 279 281 282 284 286 288 288 288 286 285
286 286 285 284 283 283 284 284 285 286 286 286 286 286 286 287 287 288 286 285 285 283 282 281 278 277 277 276 276 277 277 277 277 278 277 278 279 279 281 285 284 283 284
285 281 282 281 281 282 283 288 287 284 284 284 284 284 284 284 284 288 288 288 286 283 281 280 279 277 277 277 277 277 277 276 274 279 277 276 277 276 277 277 281 283 283
278 278 278 278 279 280 286 287 288 284 283 283 283 283 282 282 283 284 287 288 287 289 286 282 278 278 277 278 278 277 277 277 276 275 276 274 275 274 275 276 282 283 284
277 277 276 276 277 279 285 286 287 284 283 283 282 282 282 281 281 282 283 283 283 284 284 283 281 280 281 280 279 279 279 277 275 274 275 272 273 272 273 274 280 283 284
274 274 276 274 275 277 283 285 285 282 283 282 281 281 281 280 282 284 282 281 281 281 285 287 285 285 285 284 283 279 275 274 272 272 274 272 272 271 271 271 272 279 282
275 275 276 274 274 274 282 285 285 283 281 280 280 279 281 281 282 285 282 281 279 279 281 281 282 284 286 285 285 280 277 274 272 269 273 272 270 270 269 270 269 270 270
Wind_Speed
4 4 4 4 4 4 4 4 5 5 6 6 6 6 6 5 7 4 4 10 10 13 13 13 13 13 13 14 14 14 15 15 17 16 17 18 18 19 19 19 20 20 20
4 3 4 4 4 4 4 5 4 4 5 4 6 6 6 5 6 6 4 6 11 10 12 12 12 11 12 13 13 14 13 15 15 16 15 16 17 17 17 18 18 18 18
6 6 4 4 4 4 7 6 6 6 5 4 6 5 5 6 5 5 5 4 5 16 7 11 11 11 10 11 12 13 13 13 13 13 14 15 15 15 15 15 16 16 17
8 7 6 5 5 5 5 5 5 5 5 4 3 4 4 4 5 5 5 4 4 4 8 11 8 9 10 11 11 11 12 12 12 13 11 13 13 13 14 14 14 15 15
10 8 7 6 7 6 4 6 3 4 4 4 5 3 4 4 5 3 5 5 4 4 4 7 10 8 9 11 11 11 11 11 10 10 11 11 11 11 12 12 12 12 13
11 9 7 8 8 6 6 6 6 4 4 5 6 4 3 2 3 3 2 2 2 3 4 4 3 5 1 11 11 11 10 10 9 8 8 9 9 9 9 10 10 11 12
12 12 9 10 9 9 9 9 6 10 3 5 4 2 2 2 1 1 2 0 1 2 2 1 2 2 3 4 11 10 11 10 9 8 6 6 6 7 8 8 9 9 10
14 13 12 12 13 10 12 12 9 5 2 8 4 3 2 3 3 3 1 3 2 1 2 1 2 3 2 2 3 10 10 9 8 8 6 6 6 6 5 5 7 8 9
16 16 15 11 13 12 11 13 12 14 5 7 6 6 3 6 1 1 4 3 2 2 3 3 2 3 2 2 4 3 8 8 7 7 6 4 3 4 4 5 5 7 8
15 15 14 13 14 10 13 14 13 12 9 9 3 5 0 3 4 2 3 4 4 5 5 3 4 3 3 2 4 7 10 7 5 8 4 4 2 2 2 3 4 6 7
10 12 13 13 12 11 13 14 14 14 12 10 8 5 2 1 1 3 3 3 3 4 6 6 5 4 4 3 3 4 10 10 7 6 5 3 2 0 1 3 4 6 7
2 2 6 9 10 10 11 12 13 14 12 8 9 6 7 6 6 5 3 3 4 6 8 6 6 5 5 4 6 9 13 13 12 10 8 6 4 2 1 3 4 5 6
3 6 6 5 7 9 11 11 10 11 12 12 12 10 7 6 3 4 3 3 3 2 4 6 7 6 6 5 6 8 11 15 15 13 11 8 6 4 3 2 3 4 5
3 4 5 5 6 6 7 8 7 8 9 8 9 9 6 7 6 4 5 5 2 4 4 4 8 8 7 6 8 15 6 15 16 15 13 11 8 6 5 5 3 4 5
2 4 5 5 5 5 6 8 7 9 9 9 10 8 9 6 5 7 5 5 9 5 7 8 6 11 9 8 10 9 8 14 17 16 15 13 9 8 7 5 5 6 7
3 4 4 4 5 5 6 7 5 5 8 7 8 10 9 8 7 7 8 8 7 11 9 7 9 4 10 8 11 10 9 15 18 17 16 13 12 11 9 7 7 7 8
3 4 5 5 5 5 5 6 6 7 10 9 9 11 13 11 8 7 7 7 9 8 12 1 3 3 9 9 8 9 8 8 7 16 15 15 14 13 8 11 9 9 10
4 5 5 5 5 6 6 6 6 5 8 8 9 9 10 7 10 8 8 11 10 10 9 7 2 3 3 9 9 10 8 7 6 13 16 15 14 14 11 13 12 12 12
4 4 4 5 5 6 6 6 6 7 7 8 8 9 10 8 9 8 9 9 8 7 8 4 4 2 3 5 4 5 6 6 5 12 16 16 16 13 13 17 15 13 13
5 5 5 5 6 5 6 5 6 6 6 7 7 9 9 9 11 9 9 10 9 9 8 7 4 4 3 5 7 7 6 4 6 5 11 11 10 13 17 18 16 13 13
4 5 4 5 3 4 4 4 5 6 6 6 5 6 6 7 12 11 7 9 9 9 7 8 4 3 4 4 9 7 8 6 5 3 4 4 4 5 8 16 11 14 15
4 3 4 3 3 3 6 11 7 4 4 6 7 6 6 7 10 16 17 16 13 11 10 7 6 6 7 6 8 7 7 5 5 5 5 6 6 7 7 6 14 16 16
2 2 2 3 5 4 9 11 11 4 6 6 6 6 5 5 7 8 14 16 16 19 14 10 10 8 8 10 12 10 11 8 4 3 5 6 5 7 5 6 17 18 18
3 3 3 3 3 5 10 11 11 5 6 7 6 6 6 6 8 7 6 7 6 7 9 7 8 8 8 8 11 9 7 4 3 2 3 4 3 3 1 3 14 16 18
3 3 3 4 5 5 8 9 8 2 4 5 5 5 6 5 8 14 7 7 5 4 6 11 11 14 15 19 14 8 6 5 3 3 6 3 2 2 2 2 4 14 16
3 2 3 4 5 6 9 11 9 4 5 4 3 3 8 8 12 15 8 8 8 7 6 4 4 10 11 11 17 8 7 5 3 1 6 6 3 2 3 2 2 3 3
Wind_Direction
139 133 129 120 109 105 99 88 81 77 70 65 55 56 46 37 75 65 12 37 100 105 108 109 107 107 107 107 101 101 101 97 91 92 90 86 86 82 79 76 73 69 65
153 142 126 120 116 112 96 93 88 78 72 68 69 55 51 41 51 80 58 17 51 104 111 114 112 113 113 114 114 109 105 102 102 96 93 88 85 83 80 77 75 73 66
155 133 139 137 133 120 115 107 98 95 85 70 69 49 45 36 40 33 78 54 18 46 83 116 118 121 118 117 114 115 109 106 105 99 98 96 92 87 84 79 74 70 65
154 148 156 146 136 128 119 114 114 92 90 72 69 56 38 45 39 27 41 48 29 35 44 51 127 135 133 130 125 119 118 110 106 105 106 100 94 90 84 78 72 66 62
166 162 168 151 143 134 130 139 117 117 120 103 93 47 50 25 22 38 51 41 33 42 24 39 46 23 151 142 138 132 128 122 118 120 110 106 97 90 84 78 72 66 60
174 163 157 150 149 147 147 141 133 111 125 125 109 69 15 42 75 359 30 67 45 51 47 36 29 17 14 158 155 147 137 133 137 130 123 115 105 95 84 72 64 56 51
179 174 170 161 163 169 168 152 130 135 116 133 105 64 6 329 333 309 310 143 82 16 69 77 90 51 9 347 168 161 156 151 151 138 125 116 103 87 73 62 55 49 41
183 181 181 181 175 167 169 169 159 150 110 185 133 106 191 265 247 211 242 272 217 257 271 296 100 82 46 37 280 169 170 163 161 152 135 124 114 99 85 69 52 41 32
195 191 185 189 180 172 184 179 179 170 160 197 218 140 134 217 128 159 217 231 226 229 234 259 199 129 82 60 54 116 149 167 172 168 151 133 113 101 79 55 38 30 25
195 194 193 186 186 190 184 190 184 190 157 174 190 233 349 134 176 228 222 216 201 218 228 220 232 191 174 148 126 127 123 129 162 172 154 140 129 106 73 38 32 21 21
203 199 198 193 189 196 199 188 188 193 195 172 182 146 143 183 103 141 201 211 232 209 217 215 219 202 206 173 162 160 143 151 167 168 165 165 173 131 18 14 13 17 10
195 219 196 196 197 198 205 209 195 205 202 199 198 193 176 162 188 165 179 190 206 206 209 205 212 206 197 199 186 185 176 182 186 191 191 192 197 216 301 344 3 10 358
186 198 197 197 195 205 196 186 198 208 197 209 197 201 214 190 144 161 137 154 194 161 198 216 210 202 204 196 193 191 193 195 198 197 202 204 202 210 229 280 348 347 342
190 156 194 205 221 209 197 186 191 193 206 201 221 220 211 225 165 160 162 149 188 218 205 228 200 204 199 195 196 197 195 201 208 204 206 208 212 217 226 238 300 321 318
184 193 188 193 196 194 180 177 188 193 195 204 213 207 220 212 203 203 184 171 216 220 226 212 193 200 193 185 195 196 190 205 210 214 212 212 213 224 230 241 272 298 298
184 189 215 202 194 194 187 181 186 184 189 201 207 211 214 219 203 204 201 201 203 234 248 185 205 175 188 185 194 190 194 197 217 217 218 219 220 228 230 237 252 277 283
198 207 214 211 209 208 199 201 194 184 197 204 206 209 218 217 211 204 206 209 216 216 245 133 183 169 182 181 185 189 190 192 205 218 220 223 225 233 233 245 251 273 271
205 215 210 218 220 215 201 205 208 201 208 210 213 218 225 216 220 204 203 210 212 208 222 210 158 165 179 188 189 184 192 190 190 213 218 224 228 232 234 247 245 263 263
220 200 203 217 224 223 217 213 203 207 215 217 214 215 226 209 220 210 207 207 207 198 201 156 162 145 194 180 160 181 191 186 190 211 225 228 233 235 241 246 242 256 263
233 217 210 214 220 217 215 223 216 219 220 221 220 219 219 211 223 214 215 212 203 201 196 193 168 150 158 170 190 188 193 203 201 195 226 226 231 240 248 248 242 259 262
249 243 227 234 220 211 226 223 215 215 223 231 228 228 232 223 222 215 211 215 204 203 197 197 172 147 163 158 184 180 199 191 222 182 202 216 220 232 246 245 243 253 250
228 176 231 217 214 235 239 246 227 211 224 229 240 229 225 218 231 235 234 229 206 197 195 187 184 190 179 175 185 185 177 175 211 186 197 241 199 228 225 215 231 248 242
163 233 232 202 245 247 257 258 250 210 219 225 224 218 215 210 214 220 234 229 218 212 200 183 183 185 175 189 180 174 190 193 176 152 174 231 184 235 215 228 240 245 247
223 218 228 220 235 259 265 268 263 231 227 229 217 213 218 205 207 203 210 211 202 208 196 179 184 185 202 174 187 185 178 132 71 156 170 215 172 241 210 233 249 247 256
215 218 212 212 218 253 261 263 263 222 235 234 210 207 214 209 216 224 206 190 175 195 227 204 205 217 200 194 173 135 151 145 185 201 197 162 203 228 213 237 235 255 254
242 226 246 227 226 248 249 245 240 185 217 216 196 190 221 226 222 224 204 194 182 173 160 143 159 171 177 181 177 177 156 171 152 178 187 177 176 176 304 224 233 235 266